DW6801 Kvistgard DK current weather conditions

sailwx.info

Wind from 259 at 6 knots gusting 11

Air temperature 13.3° C
Dewpoint 12.2° C

Last reported at 2019-Sep-20 09:08 UTC.
Time now 2019-Sep-20 09:45 UTC

Location: N 55°60' E 012°29'.
View on Google Maps.

See reports from other nearby stations

  
Tides and Currents Weather Stations Pressure Air Temp Water Temp Dewpoint Dewpoint Depression Visibility Wind Speed Wind Dir Waves Ship Positions
date/time (UTC)wind fromknots sea level pressurealtimeterstation pressurevisibilityair tempwater tempwave heightnotes
2019-Sep-20 09:08 259 6 gusting 11 13.3
2019-Sep-20 08:59 274 4 gusting 16 13.3
2019-Sep-20 08:50 271 4 gusting 9 12.8
2019-Sep-20 08:41 269 4 gusting 9 12.8
2019-Sep-20 08:32 278 4 gusting 9 12.8
2019-Sep-20 08:23 288 3 gusting 10 12.8
2019-Sep-20 08:14 289 5 gusting 13 12.8
2019-Sep-20 08:05 278 4 gusting 10 12.8
2019-Sep-20 07:56 269 6 gusting 9 12.8
2019-Sep-20 07:47 265 5 gusting 9 12.2
2019-Sep-20 07:38 265 4 gusting 8 11.7
2019-Sep-20 07:29 255 5 gusting 10 11.7
2019-Sep-20 07:20 255 6 gusting 10 11.7
2019-Sep-20 07:11 249 6 gusting 8 11.1
2019-Sep-20 07:02 242 4 gusting 7 11.1
2019-Sep-20 06:53 232 3 gusting 6 11.1
2019-Sep-20 06:44 248 3 gusting 6 11.1
2019-Sep-20 06:35 250 3 gusting 6 11.1
2019-Sep-20 06:26 252 3 gusting 7 10.6
2019-Sep-20 06:17 252 3 gusting 6 10.6
2019-Sep-20 06:08 244 3 gusting 6 10.0
2019-Sep-20 05:59 267 2 gusting 6 9.4
2019-Sep-20 05:50 274 1 gusting 5 9.4
2019-Sep-20 05:41 275 1 gusting 3 9.4
2019-Sep-20 05:32 275 1 gusting 2 8.9
2019-Sep-20 05:23 272 2 gusting 8 8.9
2019-Sep-20 05:14 271 1 gusting 5 8.3
2019-Sep-20 05:05 271 1 gusting 2 7.8
2019-Sep-20 04:56 271 1 gusting 3 8.3
2019-Sep-20 04:47 271 1 gusting 3 7.8
2019-Sep-20 04:38 271 0 gusting 2 7.8
2019-Sep-20 04:29 271 7.8
2019-Sep-20 04:20 7.8
2019-Sep-20 04:11 271 7.8
2019-Sep-20 04:02 271 0 gusting 2 7.8
2019-Sep-20 03:53 271 1 gusting 5 6.7
2019-Sep-20 03:44 271 0 gusting 2 6.7
2019-Sep-20 03:35 271 0 gusting 2 6.1
2019-Sep-20 03:26 271 0 gusting 2 6.1
2019-Sep-20 03:17 271 1 gusting 3 6.7
2019-Sep-20 03:08 271 2 gusting 5 6.1
2019-Sep-20 02:59 271 0 gusting 3 6.7
2019-Sep-20 02:50 271 1 gusting 5 6.7
2019-Sep-20 02:41 271 1 gusting 3 6.1
2019-Sep-20 02:32 271 2 gusting 5 6.1
2019-Sep-20 02:23 271 1 gusting 3 6.1
2019-Sep-20 02:14 271 1 gusting 2 6.7
2019-Sep-20 02:05 271 1 gusting 3 6.7
2019-Sep-20 01:56 271 1 gusting 3 6.7
2019-Sep-20 01:47 271 1 gusting 3 7.2
2019-Sep-20 01:38 271 1 gusting 3 7.2
2019-Sep-20 01:29 271 1 gusting 2 7.8
2019-Sep-20 01:20 271 2 gusting 3 7.8
2019-Sep-20 01:11 271 2 gusting 5 7.2
2019-Sep-20 01:02 271 2 gusting 5 6.7
2019-Sep-20 00:53 271 3 gusting 5 6.7
2019-Sep-20 00:44 292 2 gusting 5 6.7
2019-Sep-20 00:35 308 2 gusting 3 6.7
2019-Sep-20 00:26 308 2 gusting 3 6.1
2019-Sep-20 00:17 308 1 gusting 3 6.1
2019-Sep-20 00:08 308 2 gusting 3 5.6
2019-Sep-19 23:59 308 0 gusting 2 5.6
2019-Sep-19 23:50 308 1 gusting 3 5.6
2019-Sep-19 23:41 308 1 gusting 3 5.6
2019-Sep-19 23:32 308 1 gusting 2 5.0
2019-Sep-19 23:23 308 1 gusting 2 5.6
2019-Sep-19 23:14 308 1 gusting 2 6.1
2019-Sep-19 23:05 308 1 gusting 2 6.1
2019-Sep-19 22:56 308 1 gusting 3 5.0
2019-Sep-19 22:47 308 1 gusting 2 5.6
2019-Sep-19 22:38 308 1 gusting 2 5.6
2019-Sep-19 22:29 308 1 gusting 2 5.6
2019-Sep-19 22:20 308 0 gusting 1 5.6
2019-Sep-19 22:11 308 0 gusting 1 5.6
2019-Sep-19 22:02 308 0 gusting 1 5.6
2019-Sep-19 21:53 308 0 gusting 2 5.6
2019-Sep-19 21:44 308 6.1
2019-Sep-19 21:35 5.6
2019-Sep-19 21:26 6.1
2019-Sep-19 21:17 6.1
2019-Sep-19 21:08 308 0 gusting 1 6.1
2019-Sep-19 20:59 308 0 gusting 1 6.1
2019-Sep-19 20:50 308 1 gusting 1 6.1
2019-Sep-19 20:41 308 6.7
2019-Sep-19 20:32 308 6.7
2019-Sep-19 20:23 308 0 gusting 1 6.7
2019-Sep-19 20:14 308 0 gusting 2 6.7
2019-Sep-19 20:05 308 1 gusting 3 6.7
2019-Sep-19 19:56 308 0 gusting 2 7.2
2019-Sep-19 19:47 308 1 gusting 3 7.2
2019-Sep-19 19:38 308 0 gusting 2 7.2
2019-Sep-19 19:29 308 1 gusting 1 7.2
2019-Sep-19 19:20 308 0 gusting 2 7.8
2019-Sep-19 19:11 308 1 gusting 2 7.8
2019-Sep-19 19:02 308 0 gusting 1 7.8
2019-Sep-19 18:53 7.8
2019-Sep-19 18:44 7.2
2019-Sep-19 18:35 7.2
2019-Sep-19 18:26 7.2
2019-Sep-19 18:17 7.8
2019-Sep-19 18:08 7.2
2019-Sep-19 17:59 308 7.2
2019-Sep-19 17:50 308 0 gusting 2 7.8
2019-Sep-19 17:41 308 1 gusting 2 8.3
2019-Sep-19 17:32 308 1 gusting 2 8.3
2019-Sep-19 17:23 308 1 gusting 2 8.9
2019-Sep-19 17:14 308 1 gusting 2 8.9
2019-Sep-19 17:05 308 1 gusting 2 9.4
2019-Sep-19 16:56 308 0 gusting 2 10.0
2019-Sep-19 16:47 308 0 gusting 2 10.6
2019-Sep-19 16:38 308 11.1
2019-Sep-19 16:29 308 0 gusting 2 11.1
2019-Sep-19 16:20 308 1 gusting 4 11.1
2019-Sep-19 16:11 308 0 gusting 4 11.7
2019-Sep-19 16:02 308 1 gusting 6 11.7
2019-Sep-19 15:53 307 2 gusting 6 11.7
2019-Sep-19 15:44 296 2 gusting 5 12.2
2019-Sep-19 15:35 307 3 gusting 6 12.2
2019-Sep-19 15:26 305 3 gusting 8 12.2
2019-Sep-19 15:17 311 3 gusting 6 12.2
2019-Sep-19 15:08 321 5 gusting 8 12.2
2019-Sep-19 14:59 322 4 gusting 10 12.8
2019-Sep-19 14:50 303 4 gusting 9 12.8
2019-Sep-19 14:41 305 4 gusting 10 12.8
2019-Sep-19 14:32 316 4 gusting 10 12.8
2019-Sep-19 14:23 314 5 gusting 11 12.8
2019-Sep-19 14:14 317 5 gusting 10 12.8
2019-Sep-19 14:05 315 5 gusting 11 12.8
2019-Sep-19 13:56 308 5 gusting 11 13.3
2019-Sep-19 13:47 313 5 gusting 11 13.3
2019-Sep-19 13:38 310 5 gusting 10 13.3
2019-Sep-19 13:29 326 6 gusting 11 13.3
2019-Sep-19 13:20 318 6 gusting 13 13.9
2019-Sep-19 13:11 313 4 gusting 13 13.9
2019-Sep-19 13:02 320 6 gusting 11 13.9
2019-Sep-19 12:53 321 6 gusting 11 13.9
2019-Sep-19 12:44 305 6 gusting 13 14.4
2019-Sep-19 12:35 305 5 gusting 14 14.4
2019-Sep-19 12:26 300 6 gusting 13 14.4
2019-Sep-19 12:17 314 5 gusting 10 14.4
2019-Sep-19 12:08 331 6 gusting 10 14.4
2019-Sep-19 11:59 331 6 gusting 10 14.4
2019-Sep-19 11:50 329 6 gusting 11 14.4
2019-Sep-19 11:41 334 6 gusting 13 13.9
2019-Sep-19 11:32 343 6 gusting 13 14.4
2019-Sep-19 11:23 335 6 gusting 12 14.4
2019-Sep-19 11:14 322 6 gusting 13 14.4
2019-Sep-19 11:05 308 5 gusting 11 15.0
2019-Sep-19 10:56 311 6 gusting 13 15.0
2019-Sep-19 10:47 303 6 gusting 12 15.6
2019-Sep-19 10:38 337 6 gusting 11 15.0
2019-Sep-19 10:29 324 6 gusting 13 14.4
2019-Sep-19 10:20 312 5 gusting 10 15.0
2019-Sep-19 10:11 316 5 gusting 11 15.0
2019-Sep-19 10:02 330 4 gusting 10 15.6
2019-Sep-19 09:53 328 5 gusting 10 15.0
2019-Sep-19 09:44 322 5 gusting 8 14.4
2019-Sep-19 09:35 323 5 gusting 10 14.4
2019-Sep-19 09:26 336 4 gusting 9 15.0
2019-Sep-19 09:17 332 3 gusting 7 14.4
2019-Sep-19 09:08 355 4 gusting 9 15.0
2019-Sep-19 08:59 343 4 gusting 8 13.9
2019-Sep-19 08:50 013 4 gusting 8 14.4
2019-Sep-19 08:41 015 3 gusting 8 13.9
2019-Sep-19 08:32 001 3 gusting 7 13.9
2019-Sep-19 08:23 356 3 gusting 7 13.3
2019-Sep-19 08:14 357 4 gusting 8 13.3
2019-Sep-19 08:05 335 4 gusting 7 12.8
2019-Sep-19 07:56 003 3 gusting 7 13.3
2019-Sep-19 07:47 013 3 gusting 6 13.3
2019-Sep-19 07:38 009 3 gusting 6 13.3
2019-Sep-19 07:29 357 2 gusting 6 12.8
2019-Sep-19 07:20 322 2 gusting 6 12.2
2019-Sep-19 07:11 307 2 gusting 6 11.7
2019-Sep-19 07:02 304 2 gusting 6 11.1
2019-Sep-19 06:53 291 1 gusting 6 10.6
2019-Sep-19 06:44 258 2 gusting 6 10.0
2019-Sep-19 06:35 239 3 gusting 4 10.0
2019-Sep-19 06:26 239 3 gusting 6 8.9
2019-Sep-19 06:17 239 3 gusting 4 7.8
2019-Sep-19 06:08 239 3 gusting 6 7.8
2019-Sep-19 05:59 239 3 gusting 6 7.2
2019-Sep-19 05:50 239 3 gusting 6 6.7
2019-Sep-19 05:41 239 3 gusting 4 5.6
2019-Sep-19 05:32 238 3 gusting 6 5.0
2019-Sep-19 05:23 225 2 gusting 6 3.9
2019-Sep-19 05:14 223 0 gusting 2 4.4
2019-Sep-19 05:05 223 1 gusting 3 4.4
2019-Sep-19 04:56 223 1 gusting 2 3.9
2019-Sep-19 04:47 223 0 gusting 2 3.9
2019-Sep-19 04:38 223 0 gusting 1 3.9
2019-Sep-19 04:29 223 4.4
2019-Sep-19 04:20 223 0 gusting 2 4.4
2019-Sep-19 04:11 223 0 gusting 2 4.4
2019-Sep-19 04:02 223 0 gusting 2 4.4
2019-Sep-19 03:53 223 0 gusting 1 4.4
2019-Sep-19 03:44 223 5.0
2019-Sep-19 03:35 223 0 gusting 2 5.0
2019-Sep-19 03:26 223 1 gusting 3 5.0
2019-Sep-19 03:17 223 1 gusting 2 5.6
2019-Sep-19 03:08 223 1 gusting 3 5.6
2019-Sep-19 02:59 223 1 gusting 3 5.6
2019-Sep-19 02:50 231 2 gusting 5 5.6
2019-Sep-19 02:41 167 2 gusting 5 5.6
2019-Sep-19 02:32 157 2 gusting 4 5.6
2019-Sep-19 02:23 157 2 gusting 4 5.6
2019-Sep-19 02:14 149 2 gusting 4 5.6
2019-Sep-19 02:05 098 1 gusting 3 6.1
2019-Sep-19 01:56 097 1 gusting 5 6.7
2019-Sep-19 01:47 227 1 gusting 5 6.1
2019-Sep-19 01:38 238 1 gusting 2 5.6
2019-Sep-19 01:29 238 1 gusting 2 6.1
2019-Sep-19 01:20 238 1 gusting 2 6.1
2019-Sep-19 01:11 238 1 gusting 2 6.7
2019-Sep-19 01:02 227 2 gusting 4 6.7
2019-Sep-19 00:53 247 2 gusting 4 6.7
2019-Sep-19 00:44 330 0 gusting 2 6.7
2019-Sep-19 00:35 331 0 gusting 2 6.7
2019-Sep-19 00:26 340 0 gusting 3 7.2
2019-Sep-19 00:17 341 0 gusting 2 7.2
2019-Sep-19 00:08 305 0 gusting 1 7.8
2019-Sep-18 23:59 305 7.8
2019-Sep-18 23:50 305 1 gusting 3 7.8
2019-Sep-18 23:41 305 1 gusting 3 7.8
2019-Sep-18 23:32 305 2 gusting 3 7.8
2019-Sep-18 23:23 305 2 gusting 3 7.8
2019-Sep-18 23:14 305 0 gusting 2 7.8
2019-Sep-18 23:05 305 1 gusting 3 7.8
2019-Sep-18 22:56 305 2 gusting 4 7.8
2019-Sep-18 22:47 305 1 gusting 3 7.8
2019-Sep-18 22:38 305 1 gusting 3 8.3
2019-Sep-18 22:29 305 0 gusting 3 8.9
2019-Sep-18 22:20 305 1 gusting 4 8.9
2019-Sep-18 22:11 305 1 gusting 3 8.9
2019-Sep-18 22:02 305 0 gusting 2 8.9
2019-Sep-18 21:53 305 0 gusting 3 8.9
2019-Sep-18 21:44 305 1 gusting 6 8.9
2019-Sep-18 21:35 304 1 gusting 6 8.9
2019-Sep-18 21:26 304 1 gusting 4 8.9
2019-Sep-18 21:17 304 1 gusting 4 8.9
2019-Sep-18 21:08 307 2 gusting 4 8.3
2019-Sep-18 20:59 309 2 gusting 6 8.3
2019-Sep-18 20:50 313 2 gusting 6 8.9
2019-Sep-18 20:41 307 3 gusting 6 8.9
2019-Sep-18 20:32 310 2 gusting 7 8.3
2019-Sep-18 20:23 321 2 gusting 7 8.9
2019-Sep-18 20:14 317 3 gusting 6 8.9
2019-Sep-18 20:05 309 2 gusting 6 8.3
2019-Sep-18 19:56 312 2 gusting 7 8.3
2019-Sep-18 19:47 313 2 gusting 6 8.3
2019-Sep-18 19:38 313 2 gusting 6 8.3
2019-Sep-18 19:29 305 2 gusting 6 8.3
2019-Sep-18 19:20 307 2 gusting 4 8.3
2019-Sep-18 19:11 307 1 gusting 4 8.3
2019-Sep-18 19:02 300 1 gusting 6 8.3
2019-Sep-18 18:53 284 0 gusting 3 8.9
2019-Sep-18 18:44 284 1 gusting 3 8.9
2019-Sep-18 18:35 284 0 gusting 2 8.9
2019-Sep-18 18:26 284 1 gusting 5 9.4
2019-Sep-18 18:17 283 0 gusting 2 9.4
2019-Sep-18 18:08 283 1 gusting 2 10.0
2019-Sep-18 17:59 283 0 gusting 3 10.0
2019-Sep-18 17:50 283 1 gusting 5 10.0
2019-Sep-18 17:41 282 2 gusting 8 10.0
2019-Sep-18 17:32 283 2 gusting 6 10.0
2019-Sep-18 17:23 286 2 gusting 8 10.0
2019-Sep-18 17:14 286 1 gusting 6 10.0
2019-Sep-18 17:05 293 2 gusting 8 10.6
2019-Sep-18 16:56 301 1 gusting 6 10.6
2019-Sep-18 16:47 293 2 gusting 7 11.1
2019-Sep-18 16:38 299 2 gusting 6 11.1
2019-Sep-18 16:29 283 2 gusting 8 11.7
2019-Sep-18 16:20 295 2 gusting 8 11.7
2019-Sep-18 16:11 295 4 gusting 10 11.7
2019-Sep-18 16:02 292 3 gusting 9 12.2
2019-Sep-18 15:53 298 3 gusting 9 12.2
2019-Sep-18 15:44 297 4 gusting 10 11.7
2019-Sep-18 15:35 295 5 gusting 13 12.2
2019-Sep-18 15:26 298 5 gusting 15 12.8
2019-Sep-18 15:17 293 5 gusting 13 12.8
2019-Sep-18 15:08 294 5 gusting 11 12.8
2019-Sep-18 14:59 295 5 gusting 13 12.8
2019-Sep-18 14:50 292 5 gusting 11 12.8
2019-Sep-18 14:41 292 5 gusting 11 13.3
2019-Sep-18 14:32 303 4 gusting 13 13.3
2019-Sep-18 14:23 295 5 gusting 11 12.8
2019-Sep-18 14:14 294 4 gusting 12 12.2
2019-Sep-18 14:05 296 4 gusting 12 11.1
2019-Sep-18 13:56 295 3 gusting 7 11.1
2019-Sep-18 13:47 268 3 gusting 6 10.6
2019-Sep-18 13:38 309 2 gusting 6 10.0
2019-Sep-18 13:29 028 0 gusting 3 10.0
2019-Sep-18 13:20 037 0 gusting 2 10.0
2019-Sep-18 13:11 037 10.0
2019-Sep-18 13:02 036 1 gusting 4 9.4
2019-Sep-18 12:53 033 2 gusting 5 9.4
2019-Sep-18 12:44 025 5 gusting 10 9.4
2019-Sep-18 12:35 030 2 gusting 10 9.4
2019-Sep-18 12:26 041 0 gusting 3 9.4
2019-Sep-18 12:17 020 1 gusting 8 8.9
2019-Sep-18 12:08 305 6 gusting 12 8.9
2019-Sep-18 11:59 288 2 gusting 6 9.4
2019-Sep-18 11:50 299 4 gusting 8 9.4
2019-Sep-18 11:41 285 2 gusting 8 9.4
2019-Sep-18 11:32 292 2 gusting 10 9.4
2019-Sep-18 11:23 280 3 gusting 7 8.9
2019-Sep-18 11:14 300 5 gusting 10 8.9
2019-Sep-18 11:05 304 3 gusting 8 8.9
2019-Sep-18 10:56 274 4 gusting 10 8.9
2019-Sep-18 10:47 304 3 gusting 10 8.9
2019-Sep-18 10:38 310 2 gusting 6 8.9
2019-Sep-18 10:29 304 4 gusting 9 8.9
2019-Sep-18 10:20 276 4 gusting 9 9.4
2019-Sep-18 10:11 274 4 gusting 8 9.4
2019-Sep-18 10:02 295 1 gusting 6 9.4
2019-Sep-18 09:53 283 2 gusting 6 9.4
2019-Sep-18 09:44 261 5 gusting 9 9.4
2019-Sep-18 09:35 260 6 gusting 10 10.0
2019-Sep-18 09:26 266 3 gusting 7 10.0
2019-Sep-18 09:17 271 1 gusting 6 10.0
2019-Sep-18 09:08 271 2 gusting 5 10.0